Retour au catalogue

COSMOS 970 DEB

ActifLEO
NORAD 10535·DEBRIS·🇷🇺 Russia

Lancé Dec 21, 1977 depuis Baikonur Cosmodrome

Loading…

Prochains Passages (prochaines 24 heures)

TLE

FraisSource: Space-Track

Époque: Sep 14, 2026, 12:01 UTC

1 10535U 77121C   26257.50095959  .00000201  00000-0  27401-3 0  9996
2 10535  65.8532 338.8525 0116984   8.9532   3.4595 13.76404145435154

Suivez COSMOS 970 DEB en temps réel avec AllMySat

Download on the App Store